KLOM

Details ICAO KLOM (BBX)
Name Wings Field
Region United States
Timezone America/New_York (UTC-4.0)
Plans Departing 66
Arriving 31
Stats Elevation 301 ft / 92 m (AMSL)
Location 40.137600° -75.265100°
Runways 1
Magnetic Variation 12.071° W
Sunrise 2020-08-12 10:11:19 UTC / 2020-08-12 06:11:19 Local
Sunset 2020-08-13 00:03:28 UTC / 2020-08-12 20:03:28 Local
Advertisement - Login to hide

Runways

ID Width Length Bearing (true/mag) Surface Threshold Overrun Markings Lighting
06 75 ft / 23 m 3,704 ft / 1,129 m 53.00° / 65.07° ASPHALT 177 ft / 54 m 98 ft / 30 m APP CENTERLINE EDGE THRESHOLD
24 75 ft / 23 m 3,704 ft / 1,129 m 233.00° / 245.07° ASPHALT 0 ft / 0 m 0 ft / 0 m APP CENTERLINE EDGE THRESHOLD

Map

Weather


0- 5 10 15 20 25 30 35+ Temperature / °C

Clouds and Precipitation
Forecast for 2020-08-12 18:00 UTC. Updated 6 hours ago

Ground ~20,000 ft ~40,000 ft Winds

METAR

KLOM 122115Z AUTO 20006KT 10SM CLR 24/22 A3005 RMK AO2 T02450223

TAF

Not found

Frequencies

Recorded 118.93 MHz Wings Field AWOS
Approach 126.85 MHz Philadelphia Approach
Departure 126.85 MHz Philadelphia Departure
Unicom 123.00 MHz Wings Field Unicom
Warning: Do not use this data for real-world aviation or navigation. No guarantee of current accuracy is given.